D4539 Weather Reports


time (UTC)temp
C
wind
direction
speed
KPH
gust
KPH
rain 1hr
cm
rain 24hr
cm
rain mn
cm
humidity
%
barometer
mb
20260503054504 3 302 1.6 3.2 0.00 0.00 0.00 74 1014.8
20260503053529 3 302 1.6 4.8 0.00 0.00 0.00 72 1014.9
20260503052512 3 302 1.6 9.7 0.00 0.00 0.00 71 1014.8
20260503051459 4 301 4.8 12.9 0.00 0.00 0.00 71 1014.8
20260503050508 4 294 8.0 12.9 0.00 0.00 0.00 70 1014.8
20260503045531 4 315 6.4 14.5 0.00 0.00 0.00 69 1014.6
20260503044517 4 289 8.0 14.5 0.00 0.00 0.00 69 1014.8
20260503043503 4 305 12.9 24.1 0.00 0.00 0.00 70 1014.6
20260503042508 4 300 16.1 24.1 0.00 0.00 0.00 70 1014.4
20260503041514 4 313 9.7 14.5 0.00 0.00 0.00 70 1014.4
20260503040502 4 300 4.8 12.9 0.00 0.00 0.00 69 1014.3
20260503035518 4 305 6.4 12.9 0.00 0.00 0.00 69 1014.3
20260503034503 4 306 8.0 14.5 0.00 0.00 0.00 69 1014.3
20260503033513 5 304 6.4 14.5 0.00 0.00 0.00 69 1014.2
20260503032517 5 303 8.0 14.5 0.00 0.00 0.00 67 1014.0
20260503031503 5 304 9.7 14.5 0.00 0.00 0.00 66 1014.0
20260503030510 5 306 9.7 17.7 0.00 0.00 0.00 66 1014.8
20260503025517 5 300 4.8 16.1 0.00 0.00 0.00 66 1014.7
20260503024507 5 17 9.7 17.7 0.00 0.00 0.00 66 1014.7
20260503023516 5 298 12.9 22.5 0.00 0.00 0.00 65 1014.7
20260503022522 5 296 14.5 25.7 0.00 0.00 0.00 65 1014.5
20260503021508 5 293 14.5 22.5 0.00 0.00 0.00 65 1014.6
20260503020535 5 310 8.0 17.7 0.00 0.00 0.00 66 1014.6
20260503015520 5 308 9.7 16.1 0.00 0.00 0.00 65 1014.4
20260503014524 6 315 4.8 17.7 0.00 0.00 0.00 65 1014.3
20260503013531 6 300 8.0 16.1 0.00 0.00 0.00 64 1014.3
20260503012512 6 292 8.0 12.9 0.00 0.00 0.00 64 1014.1
20260503011517 6 333 4.8 16.1 0.00 0.00 0.00 63 1013.9
20260503010506 6 290 11.3 19.3 0.00 0.00 0.00 62 1013.9
20260503005516 6 301 4.8 19.3 0.00 0.00 0.00 62 1014.0
20260503004521 7 291 9.7 17.7 0.00 0.00 0.00 62 1013.8
20260503003509 7 305 8.0 17.7 0.00 0.00 0.00 61 1013.9
20260503002515 7 360 8.0 20.9 0.00 0.00 0.00 59 1013.6
20260503001521 7 355 6.4 25.7 0.00 0.00 0.00 58 1013.6
20260503000507 8 301 8.0 16.1 0.00 0.00 0.00 57 1013.6
20260502235515 8 20 8.0 25.7 0.00 0.00 0.00 56 1013.2
20260502234504 8 317 20.9 29.0 0.00 0.00 0.00 55 1013.0
20260502233510 8 314 11.3 25.7 0.00 0.00 0.00 54 1012.9
20260502232518 9 310 9.7 17.7 0.00 0.00 0.00 53 1012.8
20260502231502 9 302 12.9 27.4 0.00 0.00 0.00 52 1012.7
20260502230510 9 17 14.5 24.1 0.00 0.00 0.00 53 1012.7
20260502225516 9 312 6.4 17.7 0.00 0.00 0.00 53 1012.6
20260502224519 10 326 6.4 24.1 0.00 0.00 0.00 53 1012.6
20260502223531 10 355 11.3 29.0 0.00 0.00 0.00 52 1012.6
20260502222516 10 355 17.7 30.6 0.00 0.00 0.00 51 1012.6
20260502221505 10 307 16.1 29.0 0.00 0.00 0.00 52 1012.3
20260502220532 10 293 17.7 43.5 0.00 0.00 0.00 50 1012.1
20260502215515 11 18 16.1 25.7 0.00 0.00 0.00 48 1012.1
20260502214504 11 307 12.9 29.0 0.00 0.00 0.00 49 1011.9
20260502213511 11 350 12.9 27.4 0.00 0.00 0.00 51 1011.9
20260502212518 10 303 11.3 29.0 0.00 0.00 0.00 50 1011.9
20260502211503 12 346 19.3 33.8 0.00 0.00 0.00 47 1011.7
20260502210512 12 355 14.5 35.4 0.00 0.00 0.00 47 1011.5
20260502205520 11 5 19.3 37.0 0.00 0.00 0.00 47 1011.4
20260502204506 12 11 11.3 29.0 0.00 0.00 0.00 46 1011.3
20260502203510 12 302 11.3 27.4 0.00 0.00 0.00 45 1011.3
20260502202517 12 11 16.1 32.2 0.00 0.00 0.00 47 1011.2
20260502201522 13 300 8.0 33.8 0.00 0.00 0.00 45 1011.2
20260502200509 14 286 9.7 24.1 0.00 0.00 0.00 44 1011.2
20260502195521 14 314 14.5 30.6 0.00 0.00 0.00 43 1011.1
20260502194506 14 346 14.5 27.4 0.00 0.00 0.00 43 1011.4
20260502193514 13 288 8.0 24.1 0.00 0.00 0.00 44 1011.5
20260502192507 13 12 14.5 29.0 0.00 0.00 0.00 47 1011.7
20260502191512 13 17 9.7 29.0 0.00 0.00 0.00 44 1011.7
20260502190518 13 29 8.0 24.1 0.00 0.00 0.00 43 1011.6
20260502185504 13 303 3.2 32.2 0.00 0.00 0.00 41 1011.5
20260502184533 13 355 17.7 25.7 0.00 0.00 0.00 46 1011.6
20260502183517 12 281 9.7 27.4 0.00 0.00 0.00 46 1011.6
20260502182508 13 28 16.1 29.0 0.00 0.00 0.00 44 1011.6
20260502181517 12 336 11.3 19.3 0.00 0.00 0.00 47 1011.8
20260502180503 12 304 12.9 24.1 0.00 0.00 0.00 48 1012.1
20260502170518 11 307 8.0 20.9 0.00 0.00 0.00 49 1012.6
20260502163516 11 360 12.9 17.7 0.00 0.00 0.00 54 1013.2
20260502162519 10 355 11.3 24.1 0.00 0.00 0.00 50 1013.3
20260502161509 10 326 8.0 29.0 0.00 0.00 0.00 52 1013.4
20260502160537 10 304 12.9 20.9 0.00 0.00 0.00 55 1013.4
20260502151508 8 17 9.7 17.7 0.00 0.00 0.00 57 1013.7
20260502150516 7 355 12.9 27.4 0.00 0.00 0.00 57 1013.6
20260502130508 6 346 6.4 32.2 0.00 0.00 0.00 61 1013.3
20260502123512 6 5 16.1 24.1 0.00 0.00 0.00 64 1012.9
20260502122520 6 302 9.7 24.1 0.00 0.00 0.00 65 1012.9
20260502121505 6 5 11.3 22.5 0.00 0.00 0.00 68 1012.7
20260502120536 6 355 9.7 24.1 0.00 0.00 0.00 69 1012.6
20260502115506 6 314 11.3 24.1 0.00 0.00 0.00 70 1012.8
20260502114512 6 323 12.9 20.9 0.00 0.00 0.00 70 1012.8
20260502113537 6 296 14.5 30.6 0.00 0.00 0.00 70 1012.8
20260502112504 6 5 9.7 27.4 0.00 0.00 0.00 70 1012.5
20260502111514 6 286 12.9 20.9 0.00 0.00 0.00 70 1012.5
20260502110520 6 333 12.9 20.9 0.00 0.00 0.00 71 1012.5
20260502105505 6 335 9.7 19.3 0.00 0.00 0.00 72 1012.5
20260502104515 6 295 11.3 19.3 0.00 0.00 0.00 73 1012.4
20260502103509 6 296 4.8 27.4 0.00 0.00 0.00 75 1012.4
20260502102515 6 303 6.4 16.1 0.00 0.00 0.00 77 1012.3
20260502101508 6 295 8.0 20.9 0.00 0.00 0.00 78 1012.3
20260502100512 6 355 3.2 22.5 0.00 0.00 0.00 78 1012.5
20260502091511 7 355 8.0 20.9 0.00 0.00 0.00 80 1012.8
20260502090516 7 334 9.7 24.1 0.00 0.00 0.00 80 1012.8
20260502070508 7 355 8.0 22.5 0.00 0.00 0.00 79 1012.2
20260502065513 8 293 4.8 19.3 0.00 0.00 0.00 79 1012.4
20260502064521 8 323 11.3 17.7 0.00 0.00 0.00 79 1012.5
20260502063509 8 311 11.3 19.3 0.00 0.00 0.00 79 1012.7